Temp
11 11 11 12 12 12 12 12 12 12 12 12 12 13 13 12 12 12 11 12 12 12 12 12 12 12 11 11 11 12 11 12 11 11 12 11 12 11 11 10 10 10 9 8 9
11 12 12 12 12 12 12 12 13 13 13 13 13 13 13 13 13 13 12 12 12 12 12 12 12 11 11 12 12 12 14 13 12 13 12 11 12 11 11 11 10 9 9 9 8
11 12 12 12 12 12 12 13 13 13 13 13 13 13 13 13 12 11 13 12 12 12 12 12 11 11 12 13 13 12 13 12 12 12 12 12 11 12 10 10 11 10 8 9 8
11 12 12 12 12 12 12 13 13 13 13 13 13 13 13 12 12 13 13 13 12 11 12 12 11 12 13 13 13 12 12 12 11 11 11 11 12 12 11 11 11 10 9 8 7
11 12 12 12 12 12 12 13 13 13 13 13 13 13 13 12 11 13 13 13 12 12 12 11 12 12 14 13 13 13 13 11 11 11 11 11 11 11 10 11 10 10 8 8 8
12 12 12 12 12 12 13 13 13 13 13 13 13 13 13 11 12 12 13 13 12 12 11 11 12 13 13 13 13 13 13 12 11 11 11 11 11 11 11 10 10 9 9 9 9
12 12 12 12 12 12 13 13 13 13 13 13 13 13 13 10 12 12 12 12 12 12 11 11 12 12 13 14 13 13 12 12 12 11 12 11 11 11 11 10 10 10 10 10 9
11 12 12 12 12 13 13 13 13 13 13 13 13 13 11 13 12 12 12 12 12 11 10 11 11 12 13 14 13 14 13 11 12 11 12 11 10 11 11 11 10 11 10 10 9
11 11 12 12 12 12 13 13 13 13 13 13 12 12 11 13 12 12 12 12 12 12 12 12 12 12 13 14 15 15 13 13 13 12 12 11 12 11 12 11 11 11 10 10 10
10 11 11 11 11 12 12 12 12 12 12 12 12 12 12 12 11 11 12 10 11 10 11 12 12 13 14 15 16 16 14 14 14 12 13 13 13 12 11 10 11 11 11 10 10
10 10 11 11 11 11 11 12 12 11 12 12 11 11 11 11 10 10 11 11 10 11 11 11 13 14 15 15 16 15 14 14 13 13 13 14 14 13 12 10 10 11 11 10 10
10 10 10 11 11 11 11 10 11 11 11 11 12 10 11 10 10 10 11 10 11 12 12 13 13 14 15 15 15 15 16 14 14 14 14 15 15 14 13 12 11 11 11 11 11
10 10 10 10 10 10 10 10 10 10 11 12 11 11 11 10 11 11 10 11 11 12 13 14 15 14 15 15 14 15 16 16 16 14 14 15 15 15 14 13 12 12 11 11 11
10 10 10 10 10 10 9 10 10 10 10 13 12 12 11 10 11 12 11 11 12 13 14 14 14 14 14 14 15 15 15 15 14 15 16 14 17 13 15 14 13 12 12 12 12
10 10 9 9 9 9 9 10 10 10 15 13 12 11 11 11 13 12 11 11 12 13 13 14 14 14 14 14 14 15 16 16 15 15 16 16 16 16 15 15 14 13 13 12 12
10 10 9 9 9 9 9 9 9 9 15 13 12 11 12 11 12 13 11 11 12 13 13 13 14 14 14 14 14 15 15 15 15 16 17 17 16 17 15 16 15 14 13 13 12
10 10 9 9 8 9 9 9 9 12 13 14 13 12 12 12 13 12 12 12 12 12 13 13 13 13 13 14 14 14 15 16 17 18 19 17 16 17 16 15 15 15 14 14 13
10 9 9 9 9 9 9 7 11 14 14 13 13 13 13 13 13 13 12 12 12 13 15 15 15 14 14 14 15 14 15 17 17 19 20 17 18 17 16 15 15 14 14 14 13
9 9 9 9 9 8 8 9 12 13 12 12 13 13 14 14 14 13 13 13 14 13 14 16 16 15 14 14 14 15 15 16 18 16 17 13 16 17 16 15 15 15 14 14 14
9 8 8 8 8 8 7 9 12 11 10 10 12 14 14 14 14 14 14 14 14 14 14 14 15 15 15 15 15 15 16 16 17 18 16 14 16 18 16 16 15 15 14 14 13
8 6 8 7 7 6 8 10 10 10 9 10 11 12 13 14 14 14 14 14 14 14 14 14 14 15 15 15 15 15 15 16 17 18 19 19 19 18 16 15 15 15 14 14 13
7 6 7 7 6 7 9 10 8 9 8 8 9 10 11 12 13 13 14 14 14 14 14 14 14 15 16 15 15 16 16 16 17 17 17 17 18 17 16 16 15 14 13 13 12
6 5 6 7 7 9 9 7 7 8 8 8 9 9 10 10 11 12 13 14 13 13 13 14 14 15 16 16 15 15 16 16 16 17 17 17 18 16 16 15 15 13 13 12 13
6 6 6 5 6 6 8 7 8 7 7 8 8 8 9 9 10 11 12 13 11 12 12 12 14 14 16 17 16 15 15 16 16 17 17 17 16 15 15 15 14 14 12 12 13
3 5 4 7 6 6 6 6 7 7 7 7 7 7 8 9 9 10 10 11 11 11 11 11 13 14 15 15 14 16 15 15 16 16 17 16 17 17 15 14 14 13 12 11 13
3 2 3 4 4 4 5 5 6 7 7 7 7 7 7 8 8 9 10 10 11 11 10 11 12 13 14 15 15 15 16 16 16 16 16 16 14 15 16 15 14 13 12 11 10
2 2 3 3 4 4 5 6 5 5 5 5 5 6 7 7 6 6 7 7 9 9 9 10 12 13 14 15 15 15 16 16 16 15 15 16 16 16 15 14 14 14 12 11 10
Height
3159 3158 3157 3156 3155 3154 3154 3153 3153 3153 3153 3153 3153 3154 3155 3156 3157 3159 3161 3163 3165 3166 3167 3168 3169 3170 3170 3174 3172 3169 3167 3168 3167 3167 3167 3171 3173 3175 3175 3174 3175 3175 3174 3173 3171
3159 3158 3157 3156 3155 3154 3154 3153 3153 3153 3153 3152 3153 3153 3153 3154 3155 3156 3158 3160 3163 3166 3167 3168 3170 3172 3174 3175 3174 3170 3169 3169 3170 3170 3168 3172 3174 3175 3176 3176 3175 3175 3174 3172 3173
3159 3158 3157 3156 3155 3154 3153 3153 3152 3152 3152 3152 3152 3152 3152 3154 3155 3155 3155 3158 3161 3165 3166 3169 3173 3174 3175 3175 3174 3172 3171 3170 3171 3171 3170 3172 3174 3176 3174 3174 3176 3176 3174 3173 3174
3159 3158 3157 3156 3155 3154 3153 3152 3152 3151 3151 3151 3151 3151 3152 3154 3160 3152 3154 3156 3160 3163 3166 3168 3172 3175 3175 3175 3173 3168 3171 3171 3170 3170 3170 3170 3174 3175 3174 3176 3178 3176 3175 3174 3176
3159 3158 3157 3156 3155 3154 3153 3152 3151 3151 3151 3150 3150 3151 3151 3154 3155 3152 3153 3155 3158 3162 3165 3168 3172 3174 3174 3174 3173 3172 3171 3170 3170 3171 3170 3170 3173 3173 3175 3175 3177 3175 3175 3177 3180
3159 3157 3156 3155 3154 3153 3152 3151 3150 3150 3149 3149 3149 3150 3151 3154 3150 3151 3152 3154 3157 3160 3164 3168 3172 3174 3174 3174 3173 3172 3172 3171 3170 3171 3171 3172 3170 3172 3173 3174 3176 3176 3177 3180 3181
3157 3156 3155 3154 3153 3152 3151 3150 3149 3149 3148 3148 3148 3148 3149 3152 3149 3150 3151 3153 3156 3160 3165 3167 3170 3172 3173 3173 3172 3172 3170 3167 3169 3169 3171 3169 3171 3171 3173 3174 3176 3177 3179 3181 3182
3155 3154 3153 3152 3152 3151 3150 3149 3148 3147 3147 3147 3147 3147 3150 3146 3148 3149 3151 3153 3155 3158 3161 3166 3165 3169 3172 3172 3172 3170 3165 3153 3164 3167 3169 3167 3160 3169 3170 3173 3176 3178 3180 3181 3182
3152 3151 3150 3150 3149 3148 3148 3147 3147 3146 3145 3145 3146 3146 3151 3146 3146 3148 3150 3152 3154 3156 3158 3160 3164 3168 3171 3170 3168 3166 3166 3163 3163 3164 3168 3168 3166 3168 3169 3171 3175 3177 3179 3180 3183
3148 3147 3146 3146 3146 3145 3145 3145 3144 3144 3144 3144 3145 3148 3145 3145 3145 3146 3148 3151 3153 3156 3158 3161 3164 3166 3167 3167 3162 3161 3164 3165 3161 3166 3167 3169 3169 3168 3169 3170 3172 3176 3178 3180 3182
3145 3143 3142 3142 3141 3142 3142 3142 3145 3142 3140 3143 3145 3144 3143 3146 3144 3145 3146 3149 3153 3156 3158 3160 3164 3162 3162 3163 3162 3164 3166 3165 3166 3167 3168 3168 3168 3167 3168 3168 3170 3173 3175 3178 3180
3142 3140 3138 3138 3138 3138 3138 3139 3139 3138 3137 3137 3137 3140 3143 3142 3143 3145 3145 3150 3152 3154 3157 3161 3158 3160 3161 3162 3162 3163 3163 3164 3167 3167 3167 3166 3165 3164 3165 3167 3168 3171 3173 3175 3179
3138 3137 3135 3134 3134 3135 3135 3136 3135 3135 3133 3134 3133 3134 3138 3139 3143 3144 3144 3148 3151 3153 3154 3155 3156 3157 3158 3160 3162 3161 3160 3160 3162 3165 3164 3163 3160 3159 3160 3163 3167 3169 3171 3172 3176
3135 3133 3132 3132 3134 3132 3133 3133 3133 3134 3133 3131 3129 3128 3133 3137 3139 3143 3142 3147 3149 3150 3151 3152 3153 3155 3156 3157 3159 3158 3160 3160 3163 3163 3158 3161 3152 3149 3156 3157 3163 3166 3168 3170 3172
3132 3131 3129 3129 3130 3131 3132 3131 3132 3133 3129 3129 3128 3125 3129 3132 3136 3136 3140 3143 3146 3147 3150 3149 3150 3151 3152 3154 3156 3156 3157 3157 3158 3160 3159 3154 3152 3146 3150 3154 3158 3162 3164 3167 3170
3129 3128 3126 3127 3127 3128 3128 3130 3133 3137 3126 3125 3125 3124 3129 3131 3135 3136 3137 3141 3144 3145 3145 3145 3147 3148 3149 3151 3152 3155 3156 3157 3157 3155 3150 3147 3151 3144 3151 3151 3154 3157 3161 3163 3164
3125 3125 3124 3123 3125 3125 3126 3130 3136 3129 3124 3124 3124 3125 3127 3129 3132 3133 3135 3137 3139 3141 3141 3142 3142 3144 3145 3147 3149 3151 3153 3151 3148 3143 3141 3143 3145 3143 3148 3151 3153 3155 3157 3159 3162
3121 3121 3121 3121 3121 3122 3125 3130 3130 3122 3121 3123 3123 3124 3125 3127 3129 3131 3133 3133 3135 3136 3134 3134 3134 3138 3140 3141 3143 3145 3146 3141 3136 3130 3129 3138 3138 3141 3144 3149 3151 3154 3154 3156 3158
3119 3118 3118 3118 3118 3120 3123 3126 3123 3122 3121 3123 3123 3122 3122 3123 3125 3127 3128 3129 3130 3132 3134 3129 3129 3131 3135 3138 3140 3140 3141 3139 3133 3141 3138 3146 3138 3139 3143 3147 3149 3151 3152 3153 3156
3117 3116 3115 3116 3116 3117 3121 3120 3121 3120 3119 3121 3121 3119 3117 3118 3121 3122 3123 3125 3126 3128 3130 3130 3130 3128 3130 3135 3136 3135 3137 3138 3133 3130 3136 3130 3134 3133 3139 3144 3146 3149 3151 3152 3153
3116 3116 3113 3114 3114 3116 3118 3118 3117 3116 3118 3119 3118 3117 3117 3114 3114 3117 3119 3122 3122 3124 3126 3128 3128 3126 3127 3128 3130 3133 3133 3132 3129 3127 3124 3124 3124 3126 3133 3141 3144 3147 3147 3151 3151
3114 3119 3112 3112 3115 3115 3115 3115 3113 3114 3114 3114 3115 3115 3116 3115 3114 3114 3115 3117 3117 3120 3121 3123 3123 3121 3119 3124 3127 3127 3128 3127 3127 3129 3127 3126 3126 3129 3131 3137 3143 3142 3148 3150 3151
3111 3113 3108 3109 3113 3113 3112 3111 3110 3112 3112 3113 3113 3113 3114 3115 3116 3115 3113 3115 3114 3117 3120 3120 3120 3117 3116 3118 3122 3122 3123 3125 3125 3124 3125 3130 3123 3126 3133 3136 3140 3143 3145 3147 3148
3109 3113 3110 3106 3108 3108 3109 3109 3109 3107 3107 3109 3109 3110 3110 3111 3112 3112 3111 3112 3112 3115 3113 3116 3114 3113 3107 3108 3111 3116 3120 3119 3119 3121 3121 3120 3121 3129 3132 3134 3137 3141 3144 3145 3147
3108 3112 3107 3108 3108 3106 3105 3105 3105 3105 3104 3106 3106 3106 3107 3107 3108 3109 3111 3110 3112 3112 3113 3116 3113 3111 3107 3108 3111 3106 3111 3116 3116 3116 3117 3117 3119 3123 3126 3131 3134 3138 3142 3143 3144
3103 3104 3104 3102 3102 3101 3102 3102 3101 3102 3103 3102 3103 3103 3103 3104 3105 3104 3106 3107 3107 3109 3109 3111 3110 3110 3105 3103 3106 3106 3105 3108 3112 3115 3115 3117 3123 3122 3122 3127 3132 3134 3137 3139 3141
3095 3096 3095 3098 3098 3099 3098 3098 3097 3097 3097 3097 3098 3098 3099 3101 3099 3097 3098 3099 3102 3104 3105 3106 3105 3105 3101 3100 3100 3101 3101 3104 3107 3112 3115 3114 3117 3118 3120 3125 3130 3131 3132 3137 3138
Wind_Speed
5 5 4 3 3 2 1 1 2 3 5 7 8 9 11 14 16 19 16 16 10 8 6 3 2 2 1 2 5 7 1 3 7 6 9 7 6 5 7 9 5 6 7 11 8
5 4 4 3 3 3 2 2 2 2 4 5 7 8 9 9 12 15 18 18 14 10 7 4 2 4 3 2 2 4 5 3 5 2 11 9 6 5 6 6 6 8 12 5 10
4 3 3 3 3 2 2 3 3 3 3 4 6 7 8 7 6 11 14 16 17 13 10 8 6 5 4 2 3 2 3 4 1 3 5 7 8 6 8 5 5 5 13 7 13
4 4 4 3 4 3 3 3 4 3 4 4 5 6 8 7 3 12 12 14 15 16 13 10 8 6 2 4 2 4 1 2 4 2 4 5 8 5 5 5 3 6 15 13 14
5 4 4 4 4 5 5 4 4 4 4 4 5 6 7 8 6 4 10 12 15 16 15 11 9 7 4 4 3 1 1 1 3 3 2 7 8 11 8 4 4 9 15 13 13
6 6 5 5 5 5 5 6 6 5 5 4 5 7 8 6 16 8 8 11 14 16 18 13 10 9 6 5 5 3 2 2 2 5 4 6 6 8 8 6 8 11 14 12 11
9 8 8 7 6 6 6 6 6 6 5 5 5 7 10 10 12 10 7 11 15 17 13 13 13 11 5 4 6 3 7 6 5 3 3 6 10 7 8 9 8 11 12 12 13
11 11 11 10 9 8 7 7 6 7 6 5 5 8 7 15 12 12 9 10 16 20 15 15 16 10 10 7 5 6 12 6 10 7 2 7 3 8 7 9 11 11 13 13 13
14 14 13 13 12 11 9 8 8 8 8 6 5 6 8 11 12 12 11 11 14 18 22 17 18 13 10 10 14 8 10 6 7 7 2 5 9 4 6 8 13 14 14 15 13
16 17 16 14 13 13 11 10 9 9 10 8 7 5 11 9 11 11 10 11 13 15 17 19 14 15 15 16 10 8 9 7 3 9 4 3 2 3 9 13 18 15 16 15 14
16 17 18 16 14 12 12 11 9 12 14 9 7 8 3 10 12 11 11 11 13 15 15 17 18 21 19 16 14 8 5 5 4 2 3 6 7 7 9 12 18 18 18 18 17
15 15 16 15 14 12 10 10 12 15 16 14 19 15 12 10 8 12 12 15 16 17 16 14 22 18 16 14 16 11 11 10 8 5 5 7 9 9 11 13 14 19 19 18 17
14 15 15 14 13 11 10 11 11 12 17 13 17 20 21 15 13 15 17 16 14 17 18 22 8 18 17 18 15 16 16 9 7 4 10 12 14 13 13 13 14 16 19 18 20
13 13 13 13 12 8 9 8 6 6 8 12 10 15 22 17 18 14 19 18 15 17 18 19 19 14 19 19 19 19 15 11 7 8 13 8 17 5 16 13 15 16 17 20 21
10 11 13 11 11 9 9 6 2 0 6 8 7 10 15 24 2 22 18 20 17 15 18 18 17 21 20 20 20 21 14 14 12 14 14 17 13 11 12 13 15 18 17 19 22
13 10 11 12 10 9 7 4 2 3 7 4 8 9 16 22 12 13 18 20 16 16 17 19 10 17 23 19 17 20 18 16 15 18 20 17 16 9 13 12 12 13 15 20 20
15 11 8 10 11 9 7 5 4 12 1 6 6 9 17 19 20 15 19 23 22 17 19 18 23 17 15 20 19 19 23 20 17 16 14 5 5 11 7 9 10 9 10 16 21
16 12 8 7 9 7 8 7 12 5 9 5 5 9 16 17 22 16 19 22 22 19 16 16 19 25 18 22 20 20 28 23 18 10 11 16 10 7 10 8 9 8 8 13 18
15 12 9 6 7 7 11 14 10 11 9 8 9 12 16 21 17 19 21 21 21 21 22 14 15 15 20 19 22 18 27 30 30 13 13 17 9 9 10 9 9 8 6 11 15
13 11 10 6 5 7 11 19 10 14 9 8 12 11 15 20 24 20 23 18 20 22 19 18 17 14 16 20 20 24 18 26 30 20 12 17 26 3 12 13 13 8 8 9 13
11 6 10 6 5 9 13 11 14 18 13 10 13 15 14 16 21 25 21 21 15 21 19 19 16 16 20 24 21 20 19 22 28 21 11 11 13 16 15 13 13 12 10 9 11
7 2 16 7 4 7 12 14 17 13 12 12 11 12 14 12 16 17 21 20 17 16 17 21 18 21 25 20 22 23 20 19 20 17 16 16 11 2 15 14 13 16 12 11 10
7 7 15 8 4 11 13 13 13 11 14 14 16 14 16 17 14 18 21 14 7 17 13 16 23 23 24 21 20 25 23 24 25 20 20 12 16 13 11 12 17 16 12 10 8
6 4 7 8 11 11 11 14 13 11 13 13 14 15 18 19 18 16 18 18 10 13 20 15 20 23 23 23 21 27 29 25 26 22 21 20 9 9 10 16 17 16 14 10 10
5 5 11 4 5 11 13 12 12 14 12 11 11 14 15 17 21 25 23 20 15 18 18 20 22 23 28 16 19 21 24 28 28 22 18 11 16 16 14 14 17 20 15 13 16
8 9 10 13 15 15 15 15 15 16 16 16 14 14 11 16 16 16 18 27 24 13 15 20 25 26 30 26 20 18 20 24 24 20 22 19 14 7 9 11 16 19 17 16 15
16 12 14 10 12 13 13 15 16 15 18 16 18 16 16 16 17 18 18 19 19 18 16 15 21 26 31 26 23 24 22 22 19 18 20 22 15 14 11 13 14 16 15 15 16
Wind_Direction
49 45 41 33 23 5 331 284 250 233 231 234 232 229 227 227 227 228 225 224 214 193 191 147 92 127 87 283 305 40 221 149 135 185 158 147 126 136 107 103 102 87 141 158 124
43 40 35 29 17 358 339 320 299 263 239 236 235 235 234 233 230 230 225 224 216 198 188 166 144 192 216 277 306 310 357 102 98 106 138 153 141 135 131 129 99 104 151 178 152
28 23 14 3 356 344 324 303 288 272 257 247 237 230 227 229 248 249 226 219 214 202 191 183 202 211 247 268 272 341 26 125 123 107 109 165 154 149 151 181 96 167 163 153 157
13 3 352 343 338 329 310 293 287 279 262 250 241 228 214 195 91 253 221 212 207 200 194 188 200 205 243 236 246 242 126 116 180 124 101 159 155 183 145 114 112 180 169 158 159
357 345 333 323 318 317 312 303 285 275 266 254 246 231 211 195 252 266 213 205 198 190 191 193 195 204 229 232 229 167 121 147 205 157 148 183 187 184 215 172 151 157 163 162 159
331 328 323 315 307 299 297 296 292 287 275 257 240 230 206 178 245 246 206 199 192 184 187 198 193 223 227 222 265 139 147 115 143 198 193 202 188 198 222 161 166 159 162 166 171
311 307 304 303 302 292 286 283 285 281 276 263 238 226 209 211 233 221 205 193 190 184 197 205 210 195 222 221 230 217 183 143 131 178 204 186 190 195 179 162 170 161 162 173 177
299 297 294 291 288 286 284 276 271 271 270 254 231 219 173 234 228 217 213 197 197 193 192 213 212 203 207 229 218 214 234 230 141 137 220 209 203 186 188 178 179 171 173 175 180
292 289 285 284 282 280 279 279 270 263 262 257 246 213 237 236 229 228 217 209 201 204 205 205 201 211 227 215 216 219 249 247 153 147 187 220 154 191 222 175 186 182 182 182 181
294 291 287 282 278 276 273 271 271 265 256 251 251 211 262 244 213 223 217 201 203 202 212 206 210 216 220 217 248 280 181 240 243 189 172 227 239 218 201 202 185 189 188 186 184
298 294 288 285 284 281 269 265 276 300 250 209 265 193 217 182 206 207 219 200 185 199 201 208 212 219 220 223 244 252 206 207 281 222 188 245 249 225 218 201 193 193 198 193 195
300 298 294 291 284 281 278 262 259 254 259 247 232 226 206 214 204 205 201 185 197 203 201 211 221 222 225 230 237 243 236 204 202 224 248 261 255 230 214 213 212 201 205 202 193
299 296 295 296 290 284 276 271 267 268 278 264 240 232 219 223 208 212 200 195 208 209 213 217 242 222 225 229 230 227 238 212 210 229 257 254 254 238 208 203 204 215 212 199 201
305 295 290 292 293 299 283 281 277 283 284 236 239 242 210 209 225 210 216 201 212 216 217 231 227 224 224 229 225 235 227 243 230 257 277 218 278 247 206 196 204 204 206 211 208
318 301 290 283 281 278 288 288 283 101 273 168 204 212 191 201 274 205 212 198 210 219 216 232 229 225 230 232 226 234 232 235 234 250 269 263 262 165 181 195 205 211 211 214 207
323 313 285 279 271 263 265 259 170 226 246 211 220 199 189 194 206 202 201 198 217 224 236 228 235 229 233 230 228 229 233 244 241 242 245 239 218 156 218 193 186 201 209 215 213
323 320 300 269 267 261 237 191 226 239 279 223 234 206 197 203 201 204 197 200 207 216 226 236 235 239 223 222 224 221 219 226 225 223 236 152 199 243 174 192 186 203 217 216 208
322 317 303 277 264 242 213 189 240 264 239 238 218 215 211 201 207 216 208 213 217 221 247 217 218 221 221 214 211 220 214 223 214 225 238 174 210 184 174 194 204 226 226 209 204
322 313 306 289 263 232 194 215 232 250 257 249 243 236 223 217 218 216 217 223 225 225 237 262 240 220 218 220 214 216 224 227 254 269 224 225 278 205 204 212 207 211 192 189 196
322 320 303 290 251 223 209 230 243 240 258 266 250 245 238 217 218 228 220 232 231 228 231 239 261 229 216 215 222 232 236 231 245 258 244 173 201 303 182 207 204 204 193 183 185
324 354 293 293 243 209 225 246 258 254 253 252 248 249 243 254 223 224 230 235 232 230 229 235 243 243 215 213 217 216 233 229 242 244 267 261 264 208 185 193 197 187 180 166 162
321 325 280 282 236 250 250 257 246 233 259 239 247 236 244 239 246 236 236 229 229 222 223 230 237 241 215 218 224 223 222 228 236 230 266 295 298 20 189 187 195 178 177 167 165
300 257 288 248 224 252 261 267 253 244 240 249 246 244 238 241 241 240 231 219 199 209 224 228 226 240 239 208 221 231 232 223 225 234 244 245 249 189 202 211 195 205 181 176 190
310 297 282 259 248 251 258 261 256 254 236 240 243 239 240 238 234 241 228 230 241 215 237 236 231 229 230 214 218 216 227 232 234 236 241 238 152 215 199 197 202 202 190 191 228
297 264 241 223 282 246 246 247 249 244 259 241 248 242 241 250 242 237 236 234 242 250 252 231 242 239 246 253 252 244 213 220 227 242 249 310 235 217 207 200 202 198 202 200 232
250 259 250 260 265 269 262 258 250 249 251 244 251 248 253 243 242 253 242 240 245 230 238 227 239 242 249 258 228 249 210 213 219 234 249 251 223 240 195 197 206 205 207 208 209
278 273 265 257 265 260 258 257 252 251 245 246 250 251 243 245 256 251 254 241 226 235 232 239 237 234 244 243 237 236 233 213 213 228 240 249 242 253 223 213 215 217 211 215 208